Volver al catálogo

NOAA 17 DEB

LostPO
NORAD 48712·DEBRIS·🇺🇸 United States

Lanzado Jun 24, 2002 desde Vandenberg Space Force Base

Loading…

Próximos Pases (próximas 24 horas)

TLE

ObsoletoSource: Space-Track

Época: Nov 11, 2025, 02:18 UTC

1 48712U 02032AV  25315.09643291  .00236724  00000-0  88856-2 0  9990
2 48712  98.6891   1.3858 0009520 185.4684 174.6448 15.26123199242924

Sigue NOAA 17 DEB en tiempo real con AllMySat

Download on the App Store